Location: Amsterdam
(30.7274°N, 84.4357°W)
Time: 18:40:50
(UTC+00:00)

Courier 1B Rocket - Pass Details

Date: 08 February 2026
Orbit: 920 x 1201 km, 28.2° (Epoch: 10 March)

Event Time Altitude Azimuth Distance (km) Brightness Sun altitude
Rises 02:44:54 0° 217° (SW) 3,675 8.3 -44.5°
Enters shadow 02:46:05 - 213° (SSW) 3,311 8.0 -44.8°
Reaches altitude 10° 02:47:59 10° 204° (SSW) 2,773 - -45.2°
Maximum altitude 02:53:19 25° 152° (SSE) 1,981 - -46.3°
Drops below altitude 10° 02:58:57 10° 100° (E) 2,946 - -47.5°
Sets 03:02:20 0° 88° (E) 3,954 - -48.2°
